Home > Weather > Clarington > Past weeks

Flag for Canada Weather for the Past 2 Weeks in Clarington, Ontario, Canada

Now
50 °F

Mostly cloudy.


Feels Like: 48 °F
Forecast: 44 / 49 °F
Wind: 6 mph from Northeast

Location: Peterborough Airport

Current Time: May 1, 2016 at 4:55:24 AM

Latest Report: May 1, 2016 at 4:00 AM


Visibility: 9 mi

Pressure: 30.08 "Hg

Humidity: 47%

Dew Point: 30 °F

Location of ClaringtonLocation

Historic Weather in Clarington — Graph

°F

Clarington Temperature Yesterday

Maximum temperature yesterday: 61 °F (at 3:00 PM)
Minimum temperature yesterday: 25 °F (at 5:00 AM)
Average temperature yesterday: 45 °F

High & Low Weather Summary for the Past Weeks

 TemperatureHumidityPressure
High73 °F (Apr 17, 3:00 PM)100% (Apr 16, 4:00 AM)30.50 "Hg (Apr 16, 4:00 AM)
Low25 °F (Apr 30, 5:00 AM)20% (Apr 16, 5:00 PM)29.78 "Hg (Apr 22, 6:00 AM)
Average46 °F61%30.13 "Hg
* Reported Apr 16 3:00 AM — May 1 3:00 AM, Clarington, Weather by CustomWeather, © 2016

Note: Actual official high and low records may vary slightly from our data, if they occured in-between our weather recording intervals... More about our weather records

Advertising

Clarington Weather History for the Previous 24 Hours

Scroll right to see more
 ConditionsComfort  
Time TempWeatherWind HumidityBarometerVisibility
3:00 AM
Sun, May 1
52 °FOvercast.7 mph41%30.09 "Hg9 mi
2:00 AM50 °FOvercast.5 mph54%30.10 "Hg9 mi
1:00 AM48 °FOvercast.3 mph62%30.12 "Hg9 mi
12:00 AM48 °FOvercast.No wind66%30.14 "Hg9 mi
11:00 PM
Sat, Apr 30
46 °FMostly cloudy.No wind62%30.14 "Hg9 mi
10:00 PM50 °FOvercast.2 mph50%30.14 "Hg9 mi
9:00 PM50 °FMostly cloudy.3 mph40%30.15 "Hg9 mi
8:00 PM54 °FPartly sunny.3 mph33%30.16 "Hg9 mi
7:00 PM55 °FPartly sunny.9 mph33%30.17 "Hg9 mi
6:00 PM57 °FSunny.7 mph31%30.17 "Hg9 mi
5:00 PM59 °FSunny.9 mph29%30.16 "Hg9 mi
4:00 PM61 °FSunny.8 mph27%30.18 "Hg9 mi
3:00 PM61 °FSunny.6 mph25%30.19 "Hg9 mi
2:00 PM59 °FSunny.8 mph27%30.20 "Hg9 mi
1:00 PM59 °FSunny.10 mph25%30.20 "Hg9 mi
12:00 PM57 °FSunny.6 mph27%30.23 "Hg9 mi
11:00 AM55 °FSunny.7 mph26%30.24 "Hg9 mi
10:00 AM52 °FSunny.3 mph32%30.24 "Hg9 mi
9:00 AM46 °FSunny.6 mph53%30.25 "Hg9 mi
8:00 AM37 °FSunny.No wind87%30.24 "Hg9 mi
7:00 AM28 °FClear.No wind100%30.24 "Hg9 mi
6:00 AM27 °FClear.3 mph100%30.24 "Hg9 mi
5:00 AM25 °FClear.2 mph100%30.22 "Hg9 mi
4:00 AM28 °FClear.No wind93%30.21 "Hg9 mi
Weather by CustomWeather, © 2016

See weather overviewHow to use our weather pages